This demonstration page uses our WeatherBlox Daily Observations layout. Learn more.

Left ArrowRight Arrow

39.92423, -83.80882

Hourly Observations for January 5, 2017

Temp ( °F °C ) Dew Point ( °F °C ) Humidity (%) Winds ( mph kmh ) Pressure ( in mb ) Visibility ( mi km ) Precip ( " mm )
12:05 am 00:05 Partly Cloudy 18 -8 10 -12 73 73 WNW 10 17 30.09 1019 10 16.0934 0 0
12:56 am 00:56 Mostly Cloudy 17 -8.3 12 -11.1 80 80 W 5 7 30.06 1018 10 16.0934 0 0
1:25 am 01:25 Partly Cloudy 18 -8 10 -12 73 73 W 10 17 30.09 1019 10 16.0934 0 0
1:56 am 01:56 Mostly Cloudy 18 -7.8 11 -11.7 74 74 W 13 20 30.05 1018 10 16.0934 0 0
2:56 am 02:56 Cloudy 18 -7.8 11 -11.7 74 74 WNW 8 13 30.06 1018 10 16.0934 0 0
3:56 am 03:56 Cloudy 18 -7.8 11 -11.7 74 74 W 8 13 30.04 1017 10 16.0934 0 0
4:56 am 04:56 Cloudy 19 -7.2 12 -11.1 74 74 WSW 9 15 30.05 1018 10 16.0934 0 0
5:56 am 05:56 Cloudy with Light Snow 19 -7.2 12 -11.1 74 74 WSW 10 17 30.05 1018 9 14.48406 0.001 0.001
6:56 am 06:56 Cloudy with Light Snow 18 -7.8 14 -10 84 84 W 8 13 30.05 1018 3 4.82802 0.001 0.001
7:09 am 07:09 Cloudy with Light Snow 18 -8 16 -9 93 93 W 8 13 30.09 1019 2.5 4.02335 0.001 0.001
7:56 am 07:56 Cloudy with Light Snow 18 -7.8 15 -9.4 88 88 WNW 6 9 30.06 1018 3 4.82802 0.001 0.001
8:03 am 08:03 Cloudy with Light Snow 18 -8 16 -9 93 93 NW 6 9 30.09 1019 2.5 4.02335 0.001 0.001
8:13 am 08:13 Cloudy with Light Snow 18 -8 16 -9 93 93 WNW 5 7 30.09 1019 1.25 2.011675 0.001 0.001
8:56 am 08:56 Cloudy with Light Snow 18 -7.8 15 -9.4 88 88 W 6 9 30.05 1018 1.25 2.011675 0.001 0.001
9:33 am 09:33 Cloudy with Light Snow 18 -8 14 -10 86 86 W 10 17 30.09 1019 2.5 4.02335 0.001 0.001
9:42 am 09:42 Cloudy with Light Snow 18 -8 14 -10 86 86 W 9 15 30.09 1019 3 4.82802 0.001 0.001
9:54 am 09:54 Cloudy with Light Snow 18 -8 14 -10 86 86 W 8 13 30.09 1019 3 4.82802 0.001 0.001
10:03 am 10:03 Cloudy with Light Snow 18 -8 16 -9 93 93 W 8 13 30.09 1019 2.5 4.02335 0.001 0.001
10:13 am 10:13 Cloudy with Light Snow 18 -8 14 -10 86 86 WSW 8 13 30.09 1019 2.5 4.02335 0.001 0.001
10:48 am 10:48 Cloudy with Light Snow 18 -8 16 -9 93 93 W 8 13 30.09 1019 3 4.82802 0.001 0.001
10:56 am 10:56 Cloudy with Light Snow 18 -7.8 15 -9.4 88 88 W 8 13 30.06 1018 4 6.43736 0.001 0.001
11:00 am 11:00 Cloudy with Light Snow 18 -8 16 -9 93 93 W 8 13 30.09 1019 4 6.43736 0.001 0.001
11:07 am 11:07 Cloudy with Light Snow 19 -7 16 -9 86 86 WSW 5 7 30.09 1019 3 4.82802 0.001 0.001
11:16 am 11:16 Cloudy with Light Snow 18 -8 16 -9 93 93 WSW 5 7 30.06 1018 2.5 4.02335 0.001 0.001
11:22 am 11:22 Cloudy with Light Snow 18 -8 16 -9 93 93 W 6 9 30.06 1018 1.75 2.816345 0.001 0.001
11:52 am 11:52 Cloudy with Light Snow 19 -7 16 -9 86 86 W 5 7 30.06 1018 2 3.21868 0.001 0.001
11:56 am 11:56 Cloudy with Light Snow 19 -7.2 16 -8.9 88 88 WNW 7 11 30.02 1017 2.5 4.02335 0.001 0.001
12:12 pm 12:12 Cloudy with Light Snow 19 -7 16 -9 86 86 W 8 13 30.06 1018 3 4.82802 0.001 0.001
12:28 pm 12:28 Cloudy with Light Snow 19 -7 16 -9 86 86 W 7 11 30.06 1018 2 3.21868 0.001 0.001
12:41 pm 12:41 Cloudy with Light Snow 19 -7 16 -9 86 86 WSW 10 17 30.03 1017 1.75 2.816345 0.001 0.001
12:56 pm 12:56 Cloudy with Light Snow 20 -6.7 16 -8.9 85 85 WSW 12 19 30 1016 1.75 2.816345 0.001 0.001
1:19 pm 13:19 Cloudy with Light Snow 19 -7 16 -9 86 86 W 13 20 30.03 1017 3 4.82802 0.001 0.001
1:31 pm 13:31 Cloudy with Light Snow 19 -7 16 -9 86 86 WSW 12 19 30.03 1017 4 6.43736 0.001 0.001
1:56 pm 13:56 Cloudy with Light Snow 19 -7.2 15 -9.4 84 84 W 9 15 29.97 1015 5 8.0467 0.001 0.001
2:06 pm 14:06 Cloudy with Light Snow 19 -7 16 -9 86 86 W 13 20 30 1016 2.5 4.02335 0.001 0.001
2:19 pm 14:19 Cloudy with Light Snow 19 -7 16 -9 86 86 W 14 22 30 1016 1.5 2.41401 0.001 0.001
2:45 pm 14:45 Cloudy with Light Snow 19 -7 16 -9 86 86 WNW 10 17 30 1016 1 1.60934 0.001 0.001
2:56 pm 14:56 Cloudy with Light Snow 18 -7.8 15 -9.4 88 88 NW 9 15 29.97 1015 1 1.60934 0.001 0.001
3:26 pm 15:26 Cloudy with Light Snow 18 -8 14 -10 86 86 WNW 13 20 30.03 1017 1.25 2.011675 0.001 0.001
3:56 pm 15:56 Cloudy with Light Snow 17 -8.3 14 -10 88 88 NW 10 17 30 1016 1.25 2.011675 0.001 0.001
4:24 pm 16:24 Cloudy with Light Snow 16 -9 12 -11 86 86 NW 8 13 30.03 1017 2.5 4.02335 0.001 0.001
4:32 pm 16:32 Cloudy with Light Snow 16 -9 12 -11 86 86 NW 9 15 30.03 1017 3 4.82802 0.001 0.001
4:56 pm 16:56 Cloudy with Light Snow 16 -8.9 13 -10.6 88 88 NW 7 11 30.01 1016 4 6.43736 0.001 0.001
5:56 pm 17:56 Cloudy with Light Snow 15 -9.4 11 -11.7 84 84 NW 9 15 30.01 1016 9 14.48406 0.001 0.001
6:56 pm 18:56 Cloudy with Light Snow 14 -10 10 -12.2 84 84 NW 13 20 30.04 1017 9 14.48406 0.001 0.001
7:56 pm 19:56 Cloudy with Light Snow 13 -10.6 9 -12.8 84 84 WNW 9 15 30.06 1018 9 14.48406 0.001 0.001
8:56 pm 20:56 Cloudy with Light Snow 13 -10.6 9 -12.8 84 84 WNW 9 15 30.09 1019 9 14.48406 0.001 0.001
9:56 pm 21:56 Partly Cloudy 12 -11.1 7 -13.9 80 80 NW 9 15 30.09 1019 10 16.0934 0.001 0.001
10:21 pm 22:21 Mostly Cloudy with Light Snow 12 -11 7 -14 79 79 NW 10 17 30.15 1021 9 14.48406 0.001 0.001
10:56 pm 22:56 Cloudy with Light Snow 11 -11.7 6 -14.4 81 81 NNW 13 20 30.11 1020 9 14.48406 0.001 0.001
11:40 pm 23:40 Cloudy 9 -13 3 -16 78 78 NW 9 15 30.18 1022 10 16.0934 0.001 0.001
11:56 pm 23:56 Cloudy 9 -12.8 4 -15.6 80 80 NW 9 15 30.12 1020 10 16.0934 0.001 0.001

Powered by AerisWeather